JST126 YSSY-YSCB

Flight info

Callsign JST126
Flight time 0h 35m
Altitude 20000
Route WOL H65 LEECE
Aircraft A320/M-SDE3FGHIRWY/LB1

Departure

Time 2026-05-04 12:49
Airport Sydney Kingsford Smith International Airport (YSSY)

Arrival

Time 2026-05-04 13:25
Airport Canberra Airport (YSCB)
Time Latitude Longitude Altitude Speed Heading
2026-05-04 12:08 -33.93563 151.17758 30 ft 0 kts 280°
2026-05-04 12:35 -33.93563 151.17761 3 ft 2 kts 280°
2026-05-04 12:36 -33.93568 151.17792 30 ft 4 kts 278°
2026-05-04 12:36 -33.93568 151.17821 30 ft 4 kts 236°
2026-05-04 12:36 -33.93562 151.17829 30 ft 0 kts 190°
2026-05-04 12:38 -33.93563 151.17829 30 ft 0 kts 190°
2026-05-04 12:38 -33.93569 151.17828 30 ft 2 kts 190°
2026-05-04 12:38 -33.93584 151.17825 30 ft 3 kts 189°
2026-05-04 12:39 -33.93608 151.17820 30 ft 4 kts 188°
2026-05-04 12:39 -33.93636 151.17815 30 ft 4 kts 191°
2026-05-04 12:39 -33.93670 151.17805 30 ft 6 kts 193°
2026-05-04 12:39 -33.93714 151.17793 30 ft 7 kts 193°
2026-05-04 12:40 -33.93773 151.17774 30 ft 10 kts 195°
2026-05-04 12:40 -33.93857 151.17767 30 ft 16 kts 169°
2026-05-04 12:40 -33.93987 151.17802 29 ft 21 kts 167°
2026-05-04 12:40 -33.94139 151.17841 29 ft 23 kts 168°
2026-05-04 12:41 -33.94306 151.17884 30 ft 26 kts 168°
2026-05-04 12:41 -33.94477 151.17888 28 ft 20 kts 225°
2026-05-04 12:41 -33.94550 151.17885 30 ft 10 kts 172°
2026-05-04 12:41 -33.94628 151.17907 30 ft 13 kts 167°
2026-05-04 12:42 -33.94722 151.17933 30 ft 15 kts 167°
2026-05-04 12:42 -33.94832 151.17962 30 ft 17 kts 168°
2026-05-04 12:42 -33.94959 151.17994 30 ft 20 kts 168°
2026-05-04 12:42 -33.95095 151.18048 30 ft 21 kts 127°
2026-05-04 12:43 -33.95081 151.18204 30 ft 20 kts 79°
2026-05-04 12:43 -33.95050 151.18375 30 ft 22 kts 76°
2026-05-04 12:43 -33.95094 151.18529 30 ft 22 kts 149°
2026-05-04 12:43 -33.95218 151.18656 30 ft 25 kts 139°
2026-05-04 12:44 -33.95384 151.18738 30 ft 27 kts 168°
2026-05-04 12:44 -33.95579 151.18787 30 ft 30 kts 168°
2026-05-04 12:44 -33.95789 151.18841 30 ft 32 kts 168°
2026-05-04 12:44 -33.96010 151.18899 30 ft 34 kts 168°
2026-05-04 12:45 -33.96245 151.18959 30 ft 35 kts 167°
2026-05-04 12:45 -33.96492 151.19023 30 ft 37 kts 167°
2026-05-04 12:45 -33.96742 151.19071 29 ft 26 kts 191°
2026-05-04 12:45 -33.96907 151.19087 30 ft 25 kts 168°
2026-05-04 12:46 -33.97059 151.19138 29 ft 13 kts 127°
2026-05-04 12:46 -33.97055 151.19206 29 ft 0 kts 77°
2026-05-04 12:47 -33.97053 151.19220 29 ft 9 kts 77°
2026-05-04 12:47 -33.97032 151.19341 27 ft 12 kts 74°
2026-05-04 12:47 -33.96983 151.19352 24 ft 0 kts 346°
2026-05-04 12:49 -33.96782 151.19297 23 ft 68 kts 348°
2026-05-04 12:49 -33.96110 151.19124 28 ft 126 kts 348°
2026-05-04 12:49 -33.95135 151.18850 274 ft 149 kts 342°
2026-05-04 12:49 -33.94120 151.18656 997 ft 149 kts
2026-05-04 12:50 -33.93179 151.19215 1695 ft 159 kts 40°
2026-05-04 12:50 -33.92654 151.20464 2090 ft 186 kts 80°
2026-05-04 12:50 -33.92978 151.22045 2486 ft 205 kts 118°
2026-05-04 12:50 -33.93641 151.23580 3050 ft 208 kts 109°
2026-05-04 12:51 -33.93830 151.25302 3630 ft 210 kts 86°
2026-05-04 12:51 -33.93791 151.27072 4203 ft 214 kts 85°
2026-05-04 12:51 -33.93738 151.28920 4512 ft 235 kts 85°
2026-05-04 12:51 -33.93675 151.30974 4862 ft 255 kts 85°
2026-05-04 12:52 -33.93605 151.33200 4999 ft 278 kts 85°
2026-05-04 12:52 -33.93532 151.35628 5492 ft 294 kts 85°
2026-05-04 12:52 -33.93460 151.38095 6460 ft 297 kts 85°
2026-05-04 12:52 -33.93388 151.40592 7366 ft 300 kts 84°
2026-05-04 12:53 -33.93316 151.43113 8279 ft 302 kts 84°
2026-05-04 12:53 -33.93242 151.45652 9188 ft 305 kts 83°
2026-05-04 12:53 -33.93168 151.48188 10059 ft 309 kts 84°
2026-05-04 12:53 -33.93373 151.50858 10417 ft 337 kts 101°
2026-05-04 12:54 -33.94349 151.53537 10741 ft 362 kts 122°
2026-05-04 12:54 -33.96084 151.55777 11340 ft 371 kts 143°
2026-05-04 12:54 -33.98354 151.57262 12019 ft 375 kts 163°
2026-05-04 12:54 -34.00910 151.57845 12700 ft 374 kts 182°
2026-05-04 12:55 -34.03469 151.57464 13390 ft 370 kts 202°
2026-05-04 12:55 -34.05770 151.56173 14055 ft 363 kts 220°
2026-05-04 12:55 -34.07606 151.54147 14665 ft 355 kts 237°
2026-05-04 12:55 -34.09125 151.51786 15305 ft 357 kts 238°
2026-05-04 12:56 -34.10655 151.49412 15941 ft 360 kts 238°
2026-05-04 12:56 -34.12206 151.47015 16572 ft 363 kts 238°
2026-05-04 12:56 -34.13765 151.44605 17204 ft 366 kts 238°
2026-05-04 12:56 -34.15339 151.42174 17834 ft 369 kts 238°
2026-05-04 12:57 -34.16928 151.39722 18436 ft 373 kts 238°
2026-05-04 12:57 -34.18534 151.37241 18978 ft 377 kts 238°
2026-05-04 12:57 -34.20158 151.34730 19521 ft 380 kts 238°
2026-05-04 12:57 -34.21773 151.32236 19938 ft 382 kts 239°
2026-05-04 12:58 -34.23408 151.29709 20037 ft 381 kts 239°
2026-05-04 12:58 -34.25054 151.27163 20064 ft 379 kts 239°
2026-05-04 12:58 -34.26654 151.24683 20064 ft 379 kts 239°
2026-05-04 12:58 -34.28271 151.22174 20057 ft 378 kts 239°
2026-05-04 12:59 -34.29891 151.19660 20068 ft 378 kts 239°
2026-05-04 12:59 -34.31512 151.17141 20060 ft 378 kts 239°
2026-05-04 12:59 -34.33124 151.14629 20055 ft 378 kts 239°
2026-05-04 12:59 -34.34731 151.12111 20058 ft 378 kts 239°
2026-05-04 13:00 -34.36341 151.09591 20059 ft 378 kts 239°
2026-05-04 13:00 -34.37949 151.07078 20061 ft 378 kts 239°
2026-05-04 13:00 -34.39562 151.04561 20063 ft 378 kts 239°
2026-05-04 13:00 -34.41177 151.02042 20081 ft 378 kts 239°
2026-05-04 13:01 -34.42790 150.99526 20082 ft 378 kts 239°
2026-05-04 13:01 -34.44400 150.97003 20086 ft 378 kts 239°
2026-05-04 13:01 -34.45991 150.94507 20084 ft 378 kts 239°
2026-05-04 13:01 -34.47598 150.91987 20082 ft 378 kts 239°
2026-05-04 13:02 -34.49202 150.89473 20082 ft 378 kts 239°
2026-05-04 13:02 -34.50810 150.86948 20099 ft 378 kts 240°
2026-05-04 13:02 -34.52412 150.84424 20101 ft 378 kts 240°
2026-05-04 13:02 -34.54017 150.81892 20099 ft 378 kts 240°
2026-05-04 13:03 -34.55622 150.79360 20094 ft 378 kts 240°
2026-05-04 13:03 -34.57213 150.76817 20092 ft 377 kts 241°
2026-05-04 13:03 -34.58768 150.74260 20104 ft 377 kts 242°
2026-05-04 13:03 -34.60311 150.71683 20104 ft 377 kts 242°
2026-05-04 13:04 -34.61849 150.69107 20105 ft 377 kts 242°
2026-05-04 13:04 -34.63386 150.66535 20101 ft 376 kts 242°
2026-05-04 13:04 -34.64925 150.63965 20101 ft 376 kts 242°
2026-05-04 13:04 -34.66466 150.61396 20107 ft 376 kts 242°
2026-05-04 13:05 -34.68007 150.58832 20103 ft 376 kts 242°
2026-05-04 13:05 -34.69533 150.56299 20095 ft 376 kts 242°
2026-05-04 13:05 -34.71078 150.53733 20098 ft 377 kts 242°
2026-05-04 13:05 -34.72623 150.51162 20104 ft 376 kts 242°
2026-05-04 13:06 -34.74167 150.48589 20110 ft 376 kts 242°
2026-05-04 13:06 -34.75713 150.46010 20130 ft 377 kts 242°
2026-05-04 13:06 -34.77251 150.43436 20120 ft 376 kts 242°
2026-05-04 13:06 -34.78785 150.40867 20116 ft 376 kts 242°
2026-05-04 13:07 -34.80326 150.38287 20123 ft 376 kts 242°
2026-05-04 13:07 -34.81862 150.35711 20124 ft 377 kts 242°
2026-05-04 13:07 -34.83406 150.33123 20120 ft 377 kts 242°
2026-05-04 13:07 -34.84948 150.30539 20120 ft 377 kts 242°
2026-05-04 13:08 -34.86493 150.27953 20126 ft 377 kts 242°
2026-05-04 13:08 -34.88039 150.25364 20122 ft 378 kts 242°
2026-05-04 13:08 -34.89562 150.22813 20119 ft 377 kts 242°
2026-05-04 13:08 -34.91124 150.20188 20118 ft 378 kts 242°
2026-05-04 13:09 -34.92642 150.17628 20118 ft 377 kts 242°
2026-05-04 13:09 -34.94196 150.15003 20138 ft 377 kts 242°
2026-05-04 13:09 -34.95712 150.12443 20137 ft 378 kts 242°
2026-05-04 13:09 -34.97249 150.09846 20153 ft 378 kts 242°
2026-05-04 13:10 -34.98787 150.07248 20148 ft 378 kts 243°
2026-05-04 13:10 -35.00329 150.04639 20144 ft 378 kts 242°
2026-05-04 13:10 -35.01863 150.02042 20138 ft 378 kts 242°
2026-05-04 13:10 -35.03402 149.99436 20136 ft 378 kts 243°
2026-05-04 13:11 -35.04933 149.96851 19848 ft 374 kts 242°
2026-05-04 13:11 -35.06657 149.94436 19291 ft 379 kts 234°
2026-05-04 13:11 -35.08469 149.92112 18795 ft 377 kts 234°
2026-05-04 13:11 -35.10273 149.89799 18274 ft 375 kts 234°
2026-05-04 13:12 -35.11462 149.88271 17934 ft 373 kts 234°
2026-05-04 13:12 -35.13236 149.85987 17470 ft 368 kts 235°
2026-05-04 13:12 -35.15582 149.82958 16765 ft 365 kts 235°
2026-05-04 13:12 -35.16729 149.81474 16455 ft 362 kts 235°
2026-05-04 13:13 -35.18450 149.79244 15982 ft 359 kts 235°
2026-05-04 13:13 -35.20703 149.76320 15370 ft 354 kts 235°
2026-05-04 13:13 -35.22383 149.74143 14902 ft 350 kts 235°
2026-05-04 13:13 -35.24050 149.71987 14458 ft 348 kts 235°
2026-05-04 13:14 -35.25171 149.70537 14159 ft 346 kts 235°
2026-05-04 13:14 -35.26818 149.68406 13686 ft 343 kts 234°
2026-05-04 13:14 -35.28446 149.66298 13233 ft 339 kts 235°
2026-05-04 13:14 -35.30034 149.64235 12801 ft 335 kts 235°
2026-05-04 13:15 -35.31621 149.62168 12375 ft 332 kts 235°
2026-05-04 13:15 -35.33196 149.60114 11965 ft 329 kts 235°
2026-05-04 13:15 -35.34765 149.58072 11537 ft 327 kts 234°
2026-05-04 13:15 -35.36318 149.56050 11117 ft 325 kts 234°
2026-05-04 13:16 -35.37861 149.54036 10699 ft 324 kts 234°
2026-05-04 13:16 -35.39400 149.52026 10284 ft 322 kts 234°
2026-05-04 13:16 -35.40901 149.50074 10145 ft 304 kts 234°
2026-05-04 13:16 -35.42309 149.48257 9806 ft 288 kts 234°
2026-05-04 13:17 -35.43667 149.46494 9260 ft 281 kts 234°
2026-05-04 13:17 -35.44978 149.44755 8667 ft 273 kts 238°
2026-05-04 13:17 -35.45943 149.42826 8114 ft 260 kts 252°
2026-05-04 13:17 -35.46447 149.40752 7553 ft 250 kts 264°
2026-05-04 13:18 -35.46541 149.38648 6989 ft 245 kts 271°
2026-05-04 13:18 -35.46534 149.36575 6399 ft 242 kts 270°
2026-05-04 13:18 -35.46532 149.34515 5768 ft 240 kts 271°
2026-05-04 13:18 -35.46532 149.32544 5566 ft 222 kts 271°
2026-05-04 13:19 -35.46532 149.30722 5448 ft 205 kts 271°
2026-05-04 13:19 -35.46532 149.29054 5358 ft 190 kts 271°
2026-05-04 13:19 -35.46532 149.27458 5273 ft 185 kts 272°
2026-05-04 13:19 -35.46531 149.25889 5186 ft 187 kts 272°
2026-05-04 13:20 -35.46530 149.24292 5105 ft 188 kts 272°
2026-05-04 13:20 -35.46529 149.22690 5014 ft 187 kts 272°
2026-05-04 13:20 -35.46464 149.21093 4943 ft 187 kts 285°
2026-05-04 13:20 -35.45739 149.19806 4830 ft 191 kts 322°
2026-05-04 13:21 -35.44431 149.19397 4524 ft 200 kts 354°
2026-05-04 13:21 -35.43062 149.19415 4238 ft 193 kts 355°
2026-05-04 13:21 -35.41770 149.19439 3987 ft 178 kts 354°
2026-05-04 13:21 -35.40572 149.19447 3735 ft 165 kts 355°
2026-05-04 13:22 -35.39462 149.19448 3512 ft 153 kts 356°
2026-05-04 13:22 -35.38423 149.19448 3282 ft 146 kts 357°
2026-05-04 13:22 -35.37431 149.19447 3127 ft 140 kts 356°
2026-05-04 13:22 -35.36470 149.19446 2905 ft 136 kts 356°
2026-05-04 13:23 -35.35534 149.19446 2704 ft 133 kts 359°
2026-05-04 13:23 -35.34613 149.19445 2520 ft 134 kts 359°
2026-05-04 13:23 -35.33672 149.19445 2342 ft 133 kts 358°
2026-05-04 13:23 -35.32767 149.19445 2169 ft 131 kts 359°
2026-05-04 13:24 -35.31849 149.19446 1991 ft 132 kts 358°
2026-05-04 13:24 -35.30959 149.19443 1880 ft 119 kts 358°
2026-05-04 13:24 -35.30289 149.19438 1876 ft 72 kts
2026-05-04 13:25 -35.29679 149.19443 1881 ft 35 kts 359°
2026-05-04 13:25 -35.29553 149.19431 1884 ft 2 kts 284°
2026-05-04 13:25 -35.29565 149.19411 1884 ft 4 kts 236°
2026-05-04 13:25 -35.29577 149.19376 1884 ft 5 kts 264°
2026-05-04 13:26 -35.29580 149.19320 1881 ft 8 kts 266°
2026-05-04 13:26 -35.29607 149.19247 1882 ft 12 kts 210°
2026-05-04 13:26 -35.29708 149.19237 1879 ft 17 kts 180°
2026-05-04 13:26 -35.29843 149.19238 1877 ft 21 kts 180°
2026-05-04 13:27 -35.29996 149.19239 1875 ft 23 kts 178°
2026-05-04 13:27 -35.30169 149.19239 1875 ft 26 kts 179°
2026-05-04 13:27 -35.30353 149.19238 1881 ft 27 kts 181°
2026-05-04 13:27 -35.30540 149.19238 1881 ft 28 kts 180°
2026-05-04 13:28 -35.30744 149.19239 1883 ft 30 kts 180°
2026-05-04 13:28 -35.30843 149.19204 1883 ft 2 kts 287°
2026-05-04 13:28 -35.30824 149.19165 1879 ft 8 kts 289°
2026-05-04 13:28 -35.30819 149.19152 1880 ft 0 kts 292°